When you browse on this site, cookies collect data to enhance your experience and personalize the content and advertising you see.
Visit our Privacy Policy to learn more. By continuing to use the site, you agree to this use of cookies and data.
  • In Lithuania
  • List of Countries
  • For 7 days
  • Water Temperature
  • Satellite Maps
  • Weather Map
  • Weather Widgets
  • user-avatar
    Login

    Hourly Weather Lewis

    Today, 21 April, Sunday

    Time Temperature Precipitation Wind Pressure Humidity
    00:00 +9°C° 0 mm 1 mps 758 mmHg 93%
    01:00 +9°C° 1 mm 1 mps 757 mmHg 94%
    02:00 +8°C° 1 mm 2 mps 756 mmHg 95%
    03:00 +8°C° 1 mm 2 mps 755 mmHg 95%
    04:00 +8°C° 0.8 mm 3 mps 754 mmHg 96%
    05:00 +9°C° 0.8 mm 3 mps 753 mmHg 96%
    06:00 +9°C° 0 mm 3 mps 753 mmHg 96%
    07:00 +8°C° 1.4 mm 4 mps 752 mmHg 95%
    08:00 +9°C° 1.4 mm 6 mps 751 mmHg 95%
    09:00 +9°C° 1.4 mm 7 mps 751 mmHg 94%
    10:00 +10°C° 0.4 mm 8 mps 750 mmHg 93%
    11:00 +10°C° 0.4 mm 8 mps 749 mmHg 92%
    12:00 +10°C° 0.4 mm 9 mps 749 mmHg 91%
    13:00 +9°C° 0.4 mm 10 mps 748 mmHg 90%
    14:00 +11°C° 0.4 mm 10 mps 747 mmHg 89%
    15:00 +11°C° 0.4 mm 10 mps 746 mmHg 88%
    16:00 +11°C° 0.6 mm 10 mps 746 mmHg 88%
    17:00 +11°C° 0.6 mm 10 mps 745 mmHg 87%
    18:00 +11°C° 0.6 mm 10 mps 745 mmHg 87%
    19:00 +11°C° 0.7 mm 10 mps 745 mmHg 87%
    20:00 +11°C° 0.7 mm 10 mps 744 mmHg 88%
    21:00 +11°C° 0.7 mm 9 mps 744 mmHg 89%
    22:00 +11°C° 0.3 mm 9 mps 744 mmHg 88%
    23:00 +11°C° 0.3 mm 9 mps 743 mmHg 88%

    Tomorrow, 22 April, Monday

    Time Temperature Precipitation Wind Pressure Humidity
    00:00 +11°C° 0.3 mm 9 mps 743 mmHg 87%
    01:00 +11°C° 0 mm 8 mps 743 mmHg 87%
    02:00 +11°C° 0 mm 8 mps 742 mmHg 87%
    03:00 +11°C° 0 mm 8 mps 742 mmHg 87%
    04:00 +11°C° 0 mm 8 mps 742 mmHg 85%
    05:00 +10°C° 0 mm 8 mps 742 mmHg 82%
    06:00 +10°C° 0 mm 8 mps 742 mmHg 80%
    07:00 +11°C° 0 mm 8 mps 742 mmHg 73%
    08:00 +11°C° 0 mm 9 mps 742 mmHg 66%
    09:00 +12°C° 0 mm 9 mps 742 mmHg 59%
    10:00 +13°C° 0 mm 9 mps 742 mmHg 58%
    11:00 +15°C° 0 mm 9 mps 742 mmHg 56%
    12:00 +15°C° 0 mm 9 mps 743 mmHg 54%
    13:00 +16°C° 0 mm 9 mps 742 mmHg 52%
    14:00 +16°C° 0 mm 8 mps 742 mmHg 50%
    15:00 +17°C° 0 mm 8 mps 742 mmHg 48%
    16:00 +16°C° 0 mm 7 mps 742 mmHg 51%
    17:00 +16°C° 0 mm 7 mps 742 mmHg 53%
    18:00 +15°C° 0 mm 7 mps 742 mmHg 56%
    19:00 +14°C° 0 mm 6 mps 742 mmHg 60%
    20:00 +14°C° 0 mm 5 mps 743 mmHg 64%
    21:00 +13°C° 0 mm 4 mps 743 mmHg 69%
    22:00 +12°C° 0 mm 4 mps 743 mmHg 70%
    23:00 +12°C° 0 mm 4 mps 743 mmHg 72%

    Day after tomorrow, 23 April, Tuesday

    Time Temperature Precipitation Wind Pressure Humidity
    00:00 +12°C° 0 mm 4 mps 743 mmHg 74%
    01:00 +12°C° 0 mm 4 mps 742 mmHg 74%
    02:00 +12°C° 0 mm 4 mps 742 mmHg 74%
    03:00 +12°C° 0 mm 4 mps 742 mmHg 74%
    04:00 +12°C° 0 mm 4 mps 742 mmHg 73%
    05:00 +12°C° 0 mm 4 mps 742 mmHg 73%
    06:00 +11°C° 0 mm 4 mps 741 mmHg 73%
    07:00 +12°C° 0 mm 5 mps 741 mmHg 68%
    08:00 +13°C° 0 mm 5 mps 741 mmHg 63%
    09:00 +14°C° 0 mm 5 mps 741 mmHg 59%
    10:00 +15°C° 0 mm 5 mps 741 mmHg 59%
    11:00 +16°C° 0 mm 5 mps 741 mmHg 59%
    12:00 +16°C° 0 mm 5 mps 741 mmHg 60%
    13:00 +17°C° 0 mm 5 mps 741 mmHg 60%
    14:00 +17°C° 0 mm 5 mps 741 mmHg 59%
    15:00 +17°C° 0 mm 5 mps 741 mmHg 59%
    16:00 +17°C° 0 mm 3 mps 741 mmHg 60%
    17:00 +17°C° 0 mm 2 mps 741 mmHg 61%
    18:00 +18°C° 0 mm 1 mps 741 mmHg 62%
    19:00 +16°C° 0.1 mm 2 mps 741 mmHg 65%
    20:00 +16°C° 0.1 mm 2 mps 741 mmHg 68%
    21:00 +14°C° 0.1 mm 3 mps 741 mmHg 71%
    22:00 +13°C° 0.1 mm 3 mps 741 mmHg 71%
    23:00 +13°C° 0.1 mm 4 mps 741 mmHg 71%

    24 April, Wednesday

    Time Temperature Precipitation Wind Pressure Humidity
    00:00 +12°C° 0.1 mm 5 mps 741 mmHg 72%
    01:00 +11°C° 0 mm 4 mps 740 mmHg 72%
    02:00 +11°C° 0 mm 4 mps 740 mmHg 72%
    03:00 +10°C° 0 mm 4 mps 740 mmHg 72%
    04:00 +10°C° 0 mm 4 mps 740 mmHg 73%
    05:00 +9°C° 0 mm 5 mps 740 mmHg 73%
    06:00 +8°C° 0 mm 5 mps 740 mmHg 74%
    07:00 +9°C° 0 mm 5 mps 740 mmHg 72%
    08:00 +10°C° 0 mm 6 mps 740 mmHg 70%
    09:00 +11°C° 0 mm 6 mps 740 mmHg 67%
    10:00 +14°C° 0 mm 7 mps 740 mmHg 64%
    11:00 +15°C° 0 mm 7 mps 740 mmHg 62%
    12:00 +16°C° 0 mm 7 mps 740 mmHg 59%
    13:00 +16°C° 0 mm 7 mps 740 mmHg 57%
    14:00 +16°C° 0 mm 7 mps 739 mmHg 55%
    15:00 +17°C° 0 mm 7 mps 739 mmHg 54%
    16:00 +16°C° 0 mm 7 mps 739 mmHg 56%
    17:00 +15°C° 0 mm 7 mps 739 mmHg 58%
    18:00 +15°C° 0 mm 7 mps 739 mmHg 59%
    19:00 +14°C° 0 mm 7 mps 739 mmHg 64%
    20:00 +12°C° 0 mm 8 mps 739 mmHg 68%
    21:00 +10°C° 0 mm 8 mps 739 mmHg 72%
    22:00 +10°C° 0 mm 8 mps 739 mmHg 73%
    23:00 +10°C° 0 mm 8 mps 738 mmHg 74%

    25 April, Thursday

    Time Temperature Precipitation Wind Pressure Humidity
    00:00 +9°C° 0 mm 8 mps 738 mmHg 75%
    01:00 +8°C° 0 mm 9 mps 737 mmHg 75%
    02:00 +8°C° 0 mm 9 mps 737 mmHg 76%
    03:00 +8°C° 0 mm 10 mps 736 mmHg 77%
    04:00 +8°C° 0 mm 10 mps 736 mmHg 78%
    05:00 +8°C° 0 mm 11 mps 735 mmHg 79%
    06:00 +7°C° 0 mm 11 mps 735 mmHg 81%
    07:00 +8°C° 0.8 mm 11 mps 735 mmHg 82%
    08:00 +8°C° 0.8 mm 10 mps 736 mmHg 83%
    09:00 +8°C° 0.8 mm 9 mps 736 mmHg 85%
    10:00 +9°C° 0.2 mm 8 mps 736 mmHg 81%
    11:00 +10°C° 0.2 mm 8 mps 737 mmHg 76%
    12:00 +10°C° 0.2 mm 7 mps 737 mmHg 72%
    13:00 +10°C° 0 mm 6 mps 738 mmHg 69%
    14:00 +11°C° 0 mm 6 mps 738 mmHg 66%
    15:00 +12°C° 0 mm 5 mps 739 mmHg 63%
    16:00 +12°C° 0 mm 4 mps 739 mmHg 62%
    17:00 +12°C° 0 mm 3 mps 739 mmHg 62%
    18:00 +13°C° 0 mm 2 mps 740 mmHg 61%
    19:00 +11°C° 0 mm 3 mps 740 mmHg 65%
    20:00 +11°C° 0 mm 4 mps 740 mmHg 69%
    21:00 +10°C° 0 mm 4 mps 741 mmHg 73%
    22:00 +9°C° 0 mm 5 mps 741 mmHg 74%
    23:00 +9°C° 0 mm 5 mps 741 mmHg 76%

    26 April, Friday

    Time Temperature Precipitation Wind Pressure Humidity
    00:00 +9°C° 0 mm 5 mps 741 mmHg 77%
    01:00 +8°C° 0 mm 5 mps 741 mmHg 80%
    02:00 +8°C° 0 mm 5 mps 740 mmHg 82%
    03:00 +7°C° 0 mm 4 mps 740 mmHg 85%
    04:00 +7°C° 0.1 mm 4 mps 740 mmHg 85%
    05:00 +7°C° 0.1 mm 4 mps 740 mmHg 85%
    06:00 +7°C° 0.1 mm 4 mps 739 mmHg 86%
    07:00 +7°C° 0.3 mm 6 mps 739 mmHg 84%
    08:00 +8°C° 0.3 mm 7 mps 739 mmHg 83%
    09:00 +7°C° 0.3 mm 9 mps 738 mmHg 81%
    10:00 +9°C° 0 mm 8 mps 738 mmHg 76%
    11:00 +10°C° 0 mm 8 mps 738 mmHg 70%
    12:00 +12°C° 0 mm 7 mps 738 mmHg 64%
    13:00 +11°C° 0.1 mm 7 mps 738 mmHg 67%
    14:00 +10°C° 0.1 mm 6 mps 738 mmHg 70%
    15:00 +10°C° 0.1 mm 6 mps 738 mmHg 74%
    16:00 +9°C° 0 mm 5 mps 738 mmHg 76%
    17:00 +9°C° 0 mm 5 mps 738 mmHg 78%
    18:00 +9°C° 0 mm 5 mps 739 mmHg 80%
    19:00 +8°C° 0.1 mm 5 mps 739 mmHg 80%
    20:00 +7°C° 0.1 mm 6 mps 739 mmHg 79%
    21:00 +7°C° 0.1 mm 6 mps 740 mmHg 78%
    22:00 +6°C° 0 mm 5 mps 740 mmHg 79%
    23:00 +6°C° 0 mm 4 mps 740 mmHg 79%
    Show more